Retour au catalogue

SES 19

ActifCommunicationsGEO
NORAD 55971·PAYLOAD·🇱🇺 Luxembourg

Lancé Mar 17, 2023 depuis Cape Canaveral Space Force Station

Loading…

TLE

FraisSource: CelesTrak SupGP

Époque: Sep 13, 2026, 23:30 UTC

1 55971C 23038B   26256.97916667  .00000178  00000+0  00000+0 0  2565
2 55971   0.0518 278.7045 0001617 238.6497  53.2284  1.00269173    14

Suivez SES 19 en temps réel avec AllMySat

Download on the App Store